TimeEDT,TemperatureF,Dew PointF,Humidity,Sea Level PressureIn,VisibilityMPH,Wind Direction,Wind SpeedMPH,Gust SpeedMPH,PrecipitationIn,Events,Conditions,WindDirDegrees,DateUTC
12:53 AM,73.0,70.0,90,29.88,10.0,WNW,6.9,-,N/A,,Clear,300,2012-10-20 04:53:00
1:53 AM,73.0,70.0,90,29.89,10.0,NW,5.8,-,N/A,,Scattered Clouds,320,2012-10-20 05:53:00
2:53 AM,71.1,68.0,90,29.88,10.0,NW,5.8,-,N/A,,Clear,320,2012-10-20 06:53:00
3:53 AM,70.0,66.9,90,29.88,10.0,NW,3.5,-,N/A,,Scattered Clouds,320,2012-10-20 07:53:00
4:53 AM,71.1,61.0,70,29.89,10.0,NNW,6.9,-,N/A,,Overcast,330,2012-10-20 08:53:00
5:53 AM,69.1,55.0,61,29.91,10.0,North,6.9,-,N/A,,Scattered Clouds,360,2012-10-20 09:53:00
6:53 AM,69.1,52.0,54,29.93,10.0,NNW,9.2,-,N/A,,Overcast,330,2012-10-20 10:53:00
7:53 AM,66.0,53.1,63,29.94,10.0,NNW,3.5,-,N/A,,Scattered Clouds,330,2012-10-20 11:53:00
8:53 AM,70.0,51.1,51,29.96,10.0,North,5.8,-,N/A,,Clear,10,2012-10-20 12:53:00
9:53 AM,73.0,51.1,46,29.98,10.0,North,6.9,-,N/A,,Clear,10,2012-10-20 13:53:00
10:53 AM,77.0,48.9,37,29.98,10.0,NNW,10.4,-,N/A,,Clear,340,2012-10-20 14:53:00
11:53 AM,79.0,48.0,34,29.97,10.0,NNW,11.5,17.3,N/A,,Clear,340,2012-10-20 15:53:00
12:53 PM,79.0,50.0,36,29.96,10.0,WNW,6.9,-,N/A,,Clear,300,2012-10-20 16:53:00
1:53 PM,80.1,48.0,32,29.93,10.0,WNW,5.8,-,N/A,,Clear,300,2012-10-20 17:53:00
2:53 PM,81.0,46.9,30,29.91,10.0,WNW,5.8,-,N/A,,Clear,290,2012-10-20 18:53:00
3:53 PM,82.0,46.9,29,29.90,10.0,North,6.9,-,N/A,,Clear,360,2012-10-20 19:53:00
4:53 PM,81.0,46.0,29,29.89,10.0,WNW,3.5,-,N/A,,Clear,300,2012-10-20 20:53:00
5:53 PM,80.1,46.9,31,29.90,10.0,Variable,3.5,-,N/A,,Clear,0,2012-10-20 21:53:00
6:53 PM,73.0,46.9,39,29.91,10.0,NW,4.6,-,N/A,,Clear,320,2012-10-20 22:53:00
7:53 PM,69.1,55.0,61,29.92,10.0,WNW,5.8,-,N/A,,Clear,290,2012-10-20 23:53:00
8:53 PM,69.1,51.1,53,29.95,10.0,NW,6.9,-,N/A,,Clear,310,2012-10-21 00:53:00
9:53 PM,68.0,50.0,52,29.97,10.0,NW,6.9,-,N/A,,Clear,310,2012-10-21 01:53:00
10:53 PM,66.9,50.0,54,29.99,10.0,NW,6.9,-,N/A,,Clear,320,2012-10-21 02:53:00
11:53 PM,66.0,51.1,59,29.99,10.0,NNW,5.8,-,N/A,,Clear,330,2012-10-21 03:53:00